Flag for Malta Weather past 2 weeks in Valletta, Malta

Now
54 °F

Clear.


Feels Like: 50 °F
Forecast: 57 / 67 °F
Wind: 12 mph from Northwest

Location: Luqa


UV Index: 5 (Moderate)

Visibility: 10 mi


Pressure: 29.86 "Hg

Humidity: 63%

Dew point: 41 °F

Location of VallettaLocation

Historic Weather in Valletta

°F

Valletta temperature yesterday

Maximum temperature yesterday: 64 °F (at 1:45 PM)
Minimum temperature yesterday: 52 °F (at 4:15 AM)
Average temperature yesterday: 57 °F

Past Weeks' High & Low Weather Summary

 TemperatureHumidityPressure
High70 °F (Apr 7, 2:45 PM)100% (Apr 8, 6:45 AM)30.18 "Hg (Apr 8, 6:45 AM)
Low52 °F (Apr 17, 4:15 AM)34% (Apr 17, 1:45 PM)29.62 "Hg (Apr 4, 4:15 AM)
Average61 °F76%29.96 "Hg
* Reported Apr 3 3:15 AM — Apr 18 3:15 AM, Valletta, Weather by CustomWeather, © 2014

Note: Actual official high and low records may vary slightly from our data, if they occured in-between our weather recording intervals... More about our weather records

Advertising

Historic Weather Conditions — Data for Previous 24 hours

 ConditionsComfort  
Time TempWeatherWind HumidityBarometerVisibility
3:15 AM
Apr 18
54 °FClear.13 mph63%29.86 "Hg10 mi
2:45 AM52 °FClear.13 mph62%29.89 "Hg10 mi
2:15 AM54 °FClear.10 mph58%29.89 "Hg10 mi
1:15 AM54 °FClear.8 mph63%29.89 "Hg10 mi
12:45 AM54 °FClear.8 mph58%29.92 "Hg10 mi
12:15 AM54 °FClear.9 mph54%29.92 "Hg10 mi
11:45 PM
Apr 17
54 °FClear.12 mph58%29.92 "Hg10 mi
11:15 PM54 °FClear.9 mph63%29.92 "Hg10 mi
10:45 PM54 °FClear.9 mph63%29.92 "Hg10 mi
10:15 PM55 °FClear.12 mph59%29.92 "Hg10 mi
9:45 PM55 °FPassing clouds.10 mph63%29.92 "HgN/A
9:15 PM55 °FPassing clouds.10 mph63%29.92 "HgN/A
8:45 PM54 °FPassing clouds.12 mph67%29.92 "HgN/A
8:15 PM55 °FPassing clouds.13 mph63%29.92 "HgN/A
7:45 PM55 °FPassing clouds.16 mph59%29.92 "HgN/A
6:45 PM59 °FPassing clouds.16 mph48%29.92 "HgN/A
6:15 PM59 °FScattered clouds.17 mph51%29.92 "HgN/A
5:45 PM61 °FScattered clouds.16 mph48%29.92 "HgN/A
5:15 PM61 °FScattered clouds.17 mph48%29.92 "HgN/A
4:45 PM61 °FScattered clouds.16 mph45%29.92 "HgN/A
4:15 PM63 °FScattered clouds.17 mph42%29.92 "HgN/A
3:45 PM63 °FScattered clouds.16 mph39%29.92 "HgN/A
3:15 PM63 °FScattered clouds.17 mph39%29.92 "HgN/A
2:45 PM63 °FSunny.17 mph39%29.92 "Hg10 mi
2:15 PM63 °FScattered clouds.15 mph37%29.92 "HgN/A
1:45 PM64 °FScattered clouds.13 mph34%29.95 "HgN/A
1:15 PM59 °FScattered clouds.13 mph42%29.95 "HgN/A
12:45 PM59 °FScattered clouds.12 mph45%29.95 "HgN/A
12:15 PM61 °FScattered clouds.13 mph42%29.95 "HgN/A
11:45 AM61 °FScattered clouds.14 mph42%29.95 "HgN/A
11:15 AM61 °FScattered clouds.15 mph45%29.95 "HgN/A
10:45 AM59 °FScattered clouds.16 mph45%29.95 "HgN/A
10:15 AM61 °FScattered clouds.16 mph45%29.95 "HgN/A
9:15 AM59 °FPassing clouds.15 mph48%29.95 "HgN/A
8:15 AM57 °FPassing clouds.12 mph55%29.95 "HgN/A
7:45 AM55 °FPassing clouds.10 mph55%29.95 "HgN/A
7:15 AM54 °FPassing clouds.8 mph58%29.95 "HgN/A
6:45 AM54 °FPassing clouds.10 mph58%29.95 "HgN/A
6:15 AM54 °FPassing clouds.12 mph58%29.95 "HgN/A
5:45 AM54 °FPassing clouds.9 mph58%29.92 "HgN/A
5:15 AM54 °FPassing clouds.10 mph58%29.92 "HgN/A
4:45 AM54 °FPassing clouds.12 mph58%29.95 "HgN/A
4:15 AM52 °FClear.9 mph62%29.95 "Hg10 mi
Weather by CustomWeather, © 2014

See weather overview